Weather History for Springfield, IL

Change the Weather History Date:

Monday, August 25, 2014

  Actual Average Record
Temperature  
Mean Temperature 86 °F 74 °F  
Max Temperature 96 °F 85 °F 100 °F (1936)
Min Temperature 76 °F 63 °F 45 °F (1958)
Degree Days  
Heating Degree Days 0 0  
Month to date heating degree days 0 0  
Since 1 June heating degree days 3 16  
Since 1 July heating degree days 3 1  
Cooling Degree Days 21 9  
Month to date cooling degree days 249 242  
Year to date cooling degree days 943 921  
Since 1 June cooling degree days 767 817  
Growing Degree Days 36 (Base 50)    
Moisture  
Dew Point 75 °F    
Average Humidity 73    
Maximum Humidity 94    
Minimum Humidity 51    
Precipitation  
Precipitation 0.00 in 0.10 in 1.95 in (1975)
Month to date precipitation 4.10 2.62  
Year to date precipitation 29.79 25.03  
Snow  
Snow 0.00 in 0.00 in 0.00 in ()
Month to date snowfall 0.0 0.0  
Since 1 June snowfall 0.0 0.0  
Since 1 July snowfall 0.0 0.0  
Snow Depth 0.00 in    
Sea Level Pressure  
Sea Level Pressure 30.00 in    
Wind  
Wind Speed 7 mph (South)    
Max Wind Speed 20 mph    
Max Gust Speed 25 mph    
Visibility 9 miles    
Events      
T = Trace of Precipitation, MM = Missing Value Source: NWS Daily Summary

Daily Weather History Graph

Daily Weather History Graph

Search for Another Location

Airport:

Trip Planner

Search our weather history database for the weather conditions in past years. The results will help you decide how hot, cold, wet, or windy it might be!

Date:

Astronomy

Aug. 25, 2014 Rise Set
Actual Time 6:20 AM CDT 7:40 PM CDT
Civil Twilight 5:51 AM CDT 8:08 PM CDT
Nautical Twilight 5:18 AM CDT 8:42 PM CDT
Astronomical Twilight 4:42 AM CDT 9:17 PM CDT
Moon 6:25 AM CDT (8/25) 7:31 PM CDT (8/25)
Length of Visible Light 14h 16m
Length of Day
13h 20m
New Moon, 0% of the Moon is Illuminated
Aug 25
New Moon
Sep 2
First Quarter
Sep 8
Full
Sep 15
Last Quarter
Sep 24
New

Hourly Weather History & Observations

Time (CDT) Temp. Heat Index Dew Point Humidity Pressure Visibility Wind Dir Wind Speed Gust Speed Precip Events Conditions
12:52 AM - - - N/A% 29.99 in 10.0 mi South 8.1 mph - N/A   Clear
1:52 AM - - - N/A% 29.98 in 8.0 mi South 8.1 mph - N/A   Clear
2:52 AM - - - N/A% 29.98 in 7.0 mi South 6.9 mph - N/A   Clear
3:52 AM - - - N/A% 29.98 in 7.0 mi South 5.8 mph - N/A   Clear
4:52 AM - - - N/A% 29.98 in 5.0 mi South 5.8 mph - N/A   Haze
5:52 AM 77.0 °F - 75.0 °F 94% 29.97 in 5.0 mi South 4.6 mph - N/A   Clear
6:52 AM 77.0 °F - 75.0 °F 94% 29.98 in 5.0 mi South 6.9 mph - N/A   Clear
7:52 AM 81.0 °F 87.9 °F 77.0 °F 88% 29.99 in 8.0 mi South 6.9 mph - N/A   Clear
8:52 AM 82.4 °F 90.9 °F 77.0 °F 84% 30.02 in 10.0 mi South 9.2 mph - N/A   Clear
9:52 AM 87.1 °F 99.8 °F 78.1 °F 74% 30.01 in 10.0 mi SSW 6.9 mph - N/A   Clear
10:52 AM 89.1 °F 101.4 °F 77.0 °F 67% 30.02 in 10.0 mi SSW 6.9 mph - 0.00 in   Clear
11:52 AM 90.0 °F 102.5 °F 77.0 °F 65% 30.03 in 10.0 mi SW 5.8 mph - N/A   Clear
12:52 PM 91.0 °F 102.9 °F 75.9 °F 61% 30.02 in 10.0 mi SW 4.6 mph - N/A   Clear
1:52 PM 93.9 °F 109.9 °F 78.1 °F 60% 30.01 in 10.0 mi SW 8.1 mph - N/A   Clear
2:52 PM 93.9 °F 108.4 °F 77.0 °F 58% 29.99 in 10.0 mi SSW 8.1 mph - N/A   Clear
3:52 PM 95.0 °F 106.7 °F 75.0 °F 52% 29.97 in 10.0 mi SW 8.1 mph - N/A   Clear
4:52 PM 96.1 °F 108.6 °F 75.0 °F 51% 29.98 in 10.0 mi West 3.5 mph - N/A   Clear
5:52 PM 93.0 °F 105.3 °F 75.9 °F 57% 29.96 in 10.0 mi SW 3.5 mph - N/A   Clear
6:52 PM 91.0 °F 104.2 °F 77.0 °F 63% 29.95 in 10.0 mi SW 4.6 mph - N/A   Clear
7:52 PM 84.9 °F 96.6 °F 78.1 °F 80% 29.98 in 10.0 mi East 3.5 mph - N/A   Clear
8:52 PM 82.4 °F 89.5 °F 75.2 °F 79% 30.01 in 10.0 mi ENE 10.4 mph - N/A   Clear
9:52 PM 80.6 °F 84.6 °F 71.6 °F 74% 30.05 in 10.0 mi ESE 16.1 mph - N/A   Mostly Cloudy
10:52 PM 75.9 °F - 68.0 °F 76% 30.04 in 10.0 mi SSE 12.7 mph - N/A   Clear
11:52 PM 75.9 °F - 68.0 °F 76% 30.04 in 10.0 mi South 5.8 mph - N/A   Clear